When you browse on this site, cookies collect data to enhance your experience and personalize the content and advertising you see.
Visit our Privacy Policy to learn more. By continuing to use the site, you agree to this use of cookies and data.
  • In France
  • List of Countries
  • For 7 days
  • Water Temperature
  • Satellite Maps
  • Weather Map
  • Weather Widgets
  • user-avatar
    Login

    Hourly Weather Wiktoria

    Today, 12 December, Wednesday

    Time Temperature Precipitation Wind Pressure Humidity
    00:00 +21°C° 0 mm 3 mps 747 mmHg 61%
    01:00 +21°C° 0 mm 3 mps 747 mmHg 65%
    02:00 +21°C° 0 mm 3 mps 746 mmHg 67%
    03:00 +21°C° 0 mm 4 mps 746 mmHg 70%
    04:00 +21°C° 0 mm 4 mps 746 mmHg 73%
    05:00 +22°C° 0 mm 4 mps 746 mmHg 70%
    06:00 +22°C° 0 mm 5 mps 746 mmHg 68%
    07:00 +23°C° 0 mm 5 mps 747 mmHg 65%
    08:00 +26°C° 0 mm 5 mps 746 mmHg 58%
    09:00 +28°C° 0 mm 5 mps 746 mmHg 51%
    10:00 +30°C° 0 mm 5 mps 746 mmHg 44%
    11:00 +32°C° 0 mm 5 mps 745 mmHg 39%
    12:00 +34°C° 0 mm 4 mps 744 mmHg 34%
    13:00 +35°C° 0 mm 4 mps 744 mmHg 29%
    14:00 +35°C° 0 mm 4 mps 743 mmHg 28%
    15:00 +35°C° 0 mm 4 mps 742 mmHg 27%
    16:00 +35°C° 0 mm 4 mps 741 mmHg 27%
    17:00 +34°C° 0 mm 4 mps 741 mmHg 29%
    18:00 +33°C° 0 mm 3 mps 740 mmHg 31%
    19:00 +31°C° 0 mm 3 mps 740 mmHg 34%
    20:00 +29°C° 0.5 mm 3 mps 740 mmHg 40%
    21:00 +28°C° 0.5 mm 3 mps 740 mmHg 46%
    22:00 +26°C° 0.5 mm 2 mps 740 mmHg 52%
    23:00 +25°C° 2.2 mm 3 mps 739 mmHg 63%

    Tomorrow, 13 December, Thursday

    Time Temperature Precipitation Wind Pressure Humidity
    00:00 +23°C° 2.2 mm 4 mps 739 mmHg 74%
    01:00 +22°C° 2.2 mm 5 mps 738 mmHg 84%
    02:00 +22°C° 1.4 mm 5 mps 738 mmHg 86%
    03:00 +21°C° 1.4 mm 4 mps 737 mmHg 87%
    04:00 +21°C° 1.4 mm 4 mps 737 mmHg 88%
    05:00 +22°C° 0.3 mm 4 mps 737 mmHg 86%
    06:00 +22°C° 0.3 mm 4 mps 736 mmHg 85%
    07:00 +23°C° 0.3 mm 4 mps 736 mmHg 83%
    08:00 +25°C° 1.5 mm 4 mps 736 mmHg 76%
    09:00 +27°C° 1.5 mm 4 mps 736 mmHg 69%
    10:00 +28°C° 1.5 mm 4 mps 735 mmHg 62%
    11:00 +27°C° 3 mm 3 mps 735 mmHg 65%
    12:00 +27°C° 3 mm 3 mps 735 mmHg 67%
    13:00 +26°C° 3 mm 3 mps 735 mmHg 69%
    14:00 +26°C° 1.3 mm 3 mps 734 mmHg 67%
    15:00 +26°C° 1.3 mm 4 mps 734 mmHg 65%
    16:00 +26°C° 1.3 mm 4 mps 733 mmHg 63%
    17:00 +23°C° 2.6 mm 4 mps 733 mmHg 70%
    18:00 +22°C° 2.6 mm 4 mps 733 mmHg 76%
    19:00 +20°C° 2.6 mm 4 mps 733 mmHg 83%
    20:00 +19°C° 1.8 mm 4 mps 734 mmHg 85%
    21:00 +18°C° 1.8 mm 4 mps 734 mmHg 86%
    22:00 +16°C° 1.8 mm 5 mps 734 mmHg 88%
    23:00 +15°C° 1 mm 4 mps 734 mmHg 87%

    Day after tomorrow, 14 December, Friday

    Time Temperature Precipitation Wind Pressure Humidity
    00:00 +15°C° 1 mm 4 mps 734 mmHg 86%
    01:00 +14°C° 1 mm 4 mps 734 mmHg 84%
    02:00 +14°C° 0.2 mm 4 mps 735 mmHg 84%
    03:00 +13°C° 0.2 mm 4 mps 735 mmHg 83%
    04:00 +13°C° 0.2 mm 4 mps 736 mmHg 83%
    05:00 +14°C° 0 mm 5 mps 737 mmHg 79%
    06:00 +14°C° 0 mm 5 mps 737 mmHg 76%
    07:00 +15°C° 0 mm 5 mps 738 mmHg 73%
    08:00 +16°C° 0 mm 5 mps 738 mmHg 65%
    09:00 +19°C° 0 mm 6 mps 739 mmHg 57%
    10:00 +20°C° 0 mm 6 mps 739 mmHg 49%
    11:00 +21°C° 0 mm 5 mps 739 mmHg 46%
    12:00 +22°C° 0 mm 5 mps 739 mmHg 43%
    13:00 +23°C° 0 mm 5 mps 739 mmHg 39%
    14:00 +25°C° 0 mm 5 mps 739 mmHg 38%
    15:00 +25°C° 0 mm 4 mps 739 mmHg 37%
    16:00 +26°C° 0 mm 4 mps 739 mmHg 35%
    17:00 +25°C° 0 mm 3 mps 739 mmHg 39%
    18:00 +24°C° 0 mm 2 mps 739 mmHg 43%
    19:00 +23°C° 0 mm 1 mps 739 mmHg 48%
    20:00 +22°C° 0 mm 1 mps 740 mmHg 52%
    21:00 +21°C° 0 mm 1 mps 740 mmHg 56%
    22:00 +19°C° 0 mm 2 mps 740 mmHg 60%
    23:00 +19°C° 0 mm 1 mps 740 mmHg 65%

    15 December, Saturday

    Time Temperature Precipitation Wind Pressure Humidity
    00:00 +19°C° 0 mm 1 mps 740 mmHg 70%
    01:00 +18°C° 0 mm 1 mps 740 mmHg 74%
    02:00 +17°C° 0 mm 2 mps 740 mmHg 76%
    03:00 +17°C° 0 mm 2 mps 739 mmHg 78%
    04:00 +17°C° 0 mm 2 mps 739 mmHg 80%
    05:00 +17°C° 0.1 mm 3 mps 740 mmHg 76%
    06:00 +17°C° 0.1 mm 4 mps 740 mmHg 72%
    07:00 +17°C° 0.1 mm 5 mps 740 mmHg 67%
    08:00 +19°C° 0 mm 5 mps 740 mmHg 61%
    09:00 +21°C° 0 mm 6 mps 740 mmHg 55%
    10:00 +23°C° 0 mm 6 mps 741 mmHg 49%
    11:00 +23°C° 0.4 mm 6 mps 740 mmHg 48%
    12:00 +24°C° 0.4 mm 6 mps 740 mmHg 47%
    13:00 +24°C° 0.4 mm 6 mps 740 mmHg 46%
    14:00 +24°C° 0.2 mm 6 mps 740 mmHg 47%
    15:00 +25°C° 0.2 mm 5 mps 739 mmHg 47%
    16:00 +25°C° 0.2 mm 4 mps 739 mmHg 48%
    17:00 +23°C° 0.2 mm 4 mps 739 mmHg 52%
    18:00 +24°C° 0.2 mm 3 mps 739 mmHg 56%
    19:00 +23°C° 0.2 mm 2 mps 740 mmHg 59%
    20:00 +21°C° 0.1 mm 2 mps 740 mmHg 62%
    21:00 +20°C° 0.1 mm 2 mps 740 mmHg 65%
    22:00 +20°C° 0.1 mm 1 mps 741 mmHg 68%
    23:00 +19°C° 0 mm 1 mps 741 mmHg 69%

    16 December, Sunday

    Time Temperature Precipitation Wind Pressure Humidity
    00:00 +18°C° 0 mm 2 mps 741 mmHg 71%
    01:00 +17°C° 0 mm 2 mps 740 mmHg 72%
    02:00 +17°C° 0 mm 2 mps 740 mmHg 73%
    03:00 +17°C° 0 mm 2 mps 741 mmHg 74%
    04:00 +17°C° 0 mm 2 mps 741 mmHg 74%
    05:00 +18°C° 0.1 mm 2 mps 741 mmHg 73%
    06:00 +19°C° 0.1 mm 2 mps 742 mmHg 71%
    07:00 +19°C° 0.1 mm 2 mps 742 mmHg 69%
    08:00 +21°C° 0.1 mm 3 mps 742 mmHg 62%
    09:00 +24°C° 0.1 mm 3 mps 742 mmHg 56%
    10:00 +26°C° 0.1 mm 4 mps 743 mmHg 49%
    11:00 +27°C° 0.1 mm 4 mps 742 mmHg 46%
    12:00 +28°C° 0.1 mm 4 mps 742 mmHg 44%
    13:00 +29°C° 0.1 mm 4 mps 742 mmHg 41%
    14:00 +29°C° 0 mm 4 mps 742 mmHg 40%
    15:00 +29°C° 0 mm 3 mps 741 mmHg 39%
    16:00 +30°C° 0 mm 3 mps 741 mmHg 38%
    17:00 +29°C° 0 mm 2 mps 742 mmHg 41%
    18:00 +28°C° 0 mm 2 mps 742 mmHg 45%
    19:00 +27°C° 0 mm 1 mps 743 mmHg 49%
    20:00 +25°C° 0 mm 1 mps 743 mmHg 52%
    21:00 +24°C° 0 mm 2 mps 744 mmHg 56%
    22:00 +23°C° 0 mm 2 mps 744 mmHg 60%
    23:00 +21°C° 0 mm 2 mps 744 mmHg 63%

    17 December, Monday

    Time Temperature Precipitation Wind Pressure Humidity
    00:00 +20°C° 0 mm 2 mps 744 mmHg 66%
    01:00 +20°C° 0 mm 2 mps 744 mmHg 69%
    02:00 +19°C° 0 mm 2 mps 744 mmHg 72%
    03:00 +19°C° 0 mm 2 mps 744 mmHg 74%
    04:00 +18°C° 0 mm 2 mps 744 mmHg 77%
    05:00 +19°C° 0 mm 2 mps 745 mmHg 74%
    06:00 +20°C° 0 mm 3 mps 745 mmHg 72%
    07:00 +21°C° 0 mm 3 mps 746 mmHg 69%
    08:00 +24°C° 0 mm 3 mps 746 mmHg 63%
    09:00 +26°C° 0 mm 3 mps 746 mmHg 57%
    10:00 +28°C° 0 mm 4 mps 746 mmHg 51%
    11:00 +29°C° 0 mm 4 mps 746 mmHg 48%
    12:00 +30°C° 0 mm 4 mps 746 mmHg 44%
    13:00 +32°C° 0 mm 4 mps 745 mmHg 41%
    14:00 +32°C° 0 mm 5 mps 745 mmHg 42%
    15:00 +32°C° 0 mm 5 mps 745 mmHg 42%
    16:00 +32°C° 0 mm 6 mps 745 mmHg 42%
    17:00 +29°C° 0 mm 6 mps 745 mmHg 48%
    18:00 +27°C° 0 mm 6 mps 746 mmHg 55%
    19:00 +24°C° 0 mm 6 mps 746 mmHg 61%
    20:00 +23°C° 0 mm 6 mps 747 mmHg 65%
    21:00 +22°C° 0 mm 5 mps 747 mmHg 68%
    22:00 +21°C° 0 mm 5 mps 747 mmHg 72%
    23:00 +20°C° 0 mm 5 mps 747 mmHg 74%
    Show more